#timestamp,LO_Frequency,Hit,StdDev 
1456851615.7,286047004.3,N
1456851635.5,286047004.4,N
1456851655.3,286047004.7,N
1456851675.1,286047004.5,N
1456851695.9,286047007.1,Y
1456851715.7,286046999.6,P
1456851735.5,286046999.0,N
1456851755.4,286046996.6,N
1456851775.2,286046993.5,N
1456851795.0,286046997.4,N
1456851795.9,286046997.4,N
1456851815.8,286047000.9,N
1456851835.6,286046998.2,N
1456851855.4,286047002.7,N
1456851875.3,286047002.5,N
1456851895.1,286047001.2,N
1456851896.0,286047001.2,N
1456851915.8,286046998.2,N
1456851935.7,286046997.3,N
1456851955.5,286047001.2,N
1456851975.3,286047000.0,N
1456851995.2,286046999.1,N
1456852015.9,286046999.5,N
1456852035.7,286046997.5,N
1456852055.5,286046996.9,N
1456852075.4,286046999.0,N
1456852095.2,286047001.0,N
1456852115.0,286047004.4,N
1456852115.9,286047004.4,N
1456852135.8,286047001.5,N
1456852155.6,286047001.7,N
1456852175.4,286047003.6,N
1456852195.3,286047004.0,N
1456852215.1,286047002.1,N
1456852235.8,286047003.9,N
1456852255.7,286047004.1,N
1456852275.5,286047003.9,N
1456852295.3,286047001.5,N
1456852315.2,286047002.0,N
1456852335.9,286047000.1,N
1456852355.7,286047001.7,N
1456852375.5,286047004.0,N
1456852395.4,286047002.5,N
1456852415.2,286046999.9,N
1456852435.0,286046998.5,N
1456852435.9,286046998.5,N
1456852455.8,286046999.6,N
1456852475.6,286047002.1,N
1456852495.4,286046999.7,N
1456852515.3,286046997.7,N
1456852535.1,286047000.8,N
1456852555.8,286046998.3,N
1456852575.7,286046997.4,N
1456852595.5,286046999.1,N
1456852615.3,286046995.9,N
1456852635.2,286046996.7,N
1456852655.9,286046996.3,N
1456852675.7,286046995.7,N
1456852695.6,286046992.1,N
1456852715.4,286046993.6,N
1456852735.2,286046992.7,N
1456852755.0,286046994.5,N
1456852756.0,286046994.5,N
1456852775.8,286046995.4,N
1456852795.6,286046995.3,N
1456852815.4,286046995.1,N
1456852835.3,286046993.6,N
1456852855.1,286046989.4,Y
1456852875.8,286046989.6,P
1456852895.7,286046989.5,N
1456852915.5,286046992.0,N
1456852935.3,286046993.4,N
1456852955.2,286046990.3,Y
1456852975.0,286046999.2,P
1456852975.9,286046999.2,N
1456852995.7,286046997.9,N
1456853015.6,286046997.3,N
1456853035.4,286046995.2,N
1456853055.2,286046995.3,N
1456853075.1,286046995.6,N
1456853076.0,286046995.6,N
1456853095.8,286046996.2,N
1456853115.6,286046999.6,N
1456853135.5,286046995.2,N
1456853155.3,286046995.5,N
1456853175.1,286046996.8,N
1456853195.9,286047000.7,N
1456853215.7,286046999.4,N
1456853235.5,286046996.6,N
1456853255.4,286047002.6,N
1456853275.2,286047005.7,N
1456853295.0,286047005.2,N
1456853295.9,286047005.2,N
1456853315.7,286047004.8,N
1456853335.6,286047009.1,N
1456853355.4,286047010.0,N
1456853375.2,286047009.5,N
1456853395.1,286047013.2,N
1456853396.0,286047013.2,N
1456853415.8,286047014.6,N
1456853435.6,286047018.8,N
1456853455.5,286047016.0,N
1456853475.3,286047015.1,N
1456853495.1,286047013.2,N
1456853515.9,286047014.7,N
1456853535.7,286047018.6,N
1456853555.5,286047015.9,N
1456853575.4,286047016.9,N
1456853595.2,286047015.9,N
1456853615.0,286047014.1,N
1456853615.9,286047014.1,N
1456853635.8,286047015.5,N
1456853655.6,286047015.4,N
1456853675.4,286047012.6,N
1456853695.2,286047015.3,N
1456853715.1,286047015.5,N
1456853716.0,286047015.5,N
1456853735.8,286047011.1,N
1456853755.6,286047014.8,N
1456853775.5,286047014.4,Y
1456853795.3,286047000.4,P
1456853815.1,286046999.3,N
1456853835.9,286046998.3,N
1456853855.7,286047002.4,N
1456853875.5,286046998.2,N
1456853895.4,286046997.1,N
1456853915.2,286046995.1,N
1456853935.0,286046996.3,N
1456853935.9,286046996.3,N
1456853955.8,286046992.0,N
1456853975.6,286046993.9,N
1456853995.4,286046993.8,N
1456854015.3,286046993.3,N
1456854035.1,286046994.5,N
1456854036.0,286046994.5,N
1456854055.8,286046993.4,N
1456854075.7,286046992.1,N
1456854095.5,286046991.9,N
1456854115.3,286046995.0,N
1456854135.2,286046991.7,N
1456854155.9,286046994.0,N
1456854175.7,286046996.3,N
1456854195.5,286046996.3,N
1456854215.4,286046991.8,N
1456854235.2,286046994.0,N
1456854255.0,286046992.7,N
1456854255.9,286046992.7,N
1456854275.8,286046991.2,N
1456854295.6,286046989.6,N
1456854315.4,286046989.2,N
1456854335.3,286046987.8,Y
1456854355.1,286046991.9,P
1456854375.8,286046993.7,P
1456854395.7,286046993.9,P
1456854415.5,286046995.6,Y
1456854435.3,286047001.9,P
1456854455.2,286047001.5,N
1456854475.0,286047000.1,N
1456854475.9,286047000.1,N
1456854495.7,286046999.9,N
1456854515.6,286046999.0,N
1456854535.4,286047004.3,N
1456854555.2,286047000.1,N
1456854575.1,286047001.2,N
1456854576.0,286047001.2,N
1456854595.8,286046998.6,N
1456854615.6,286047000.5,N
1456854635.5,286047001.1,N
1456854655.3,286046998.5,N
1456854675.1,286046999.1,N
1456854695.9,286046999.4,N
1456854715.7,286046999.4,N
1456854735.5,286046997.4,N
1456854755.3,286046998.2,N
1456854775.2,286046999.0,N
1456854795.9,286046995.1,N
1456854815.7,286046999.1,N
1456854835.6,286046995.4,N
1456854855.4,286046995.4,N
1456854875.2,286046995.5,N
1456854895.1,286046997.0,N
1456854896.0,286046997.0,N
1456854915.8,286046999.5,N
1456854935.6,286047000.9,N
1456854955.5,286047003.9,N
1456854975.3,286047003.4,N
1456854995.1,286047004.4,N
1456855015.8,286047000.0,N
1456855035.7,286047005.1,N
1456855055.5,286047002.3,N
1456855075.3,286047001.2,N
1456855095.2,286047001.1,N
1456855115.0,286047000.3,N
1456855115.9,286047000.3,N
1456855135.7,286046994.9,N
1456855155.6,286046998.2,N
1456855175.4,286047000.3,N
1456855195.2,286047002.0,N
